• In Netherlands
  • List of Countries
  • For 7 days
  • Water Temperature
  • Satellite Maps
  • Weather Map
  • Weather Widgets
  • user-avatar
    Login

    Hourly Weather Artashat

    Today, 21 February, Tuesday

    Time Temperature Precipitation Wind Pressure Humidity
    00:00 -15°C° 0 mm 1 mps 594 mmHg 76%
    01:00 -15°C° 0 mm 1 mps 594 mmHg 74%
    02:00 -16°C° 0 mm 1 mps 594 mmHg 72%
    03:00 -17°C° 0 mm 1 mps 593 mmHg 70%
    04:00 -17°C° 0 mm 1 mps 593 mmHg 70%
    05:00 -17°C° 0 mm 1 mps 592 mmHg 69%
    06:00 -17°C° 0 mm 1 mps 592 mmHg 68%
    07:00 -14°C° 0 mm 1 mps 594 mmHg 69%
    08:00 -10°C° 0 mm 1 mps 596 mmHg 69%
    09:00 -4°C° 0 mm 1 mps 599 mmHg 69%
    10:00 -3°C° 0 mm 1 mps 599 mmHg 71%
    11:00 -2°C° 0 mm 1 mps 599 mmHg 73%
    12:00 -1°C° 0 mm 1 mps 599 mmHg 74%
    13:00 -1°C° 0 mm 1 mps 598 mmHg 76%
    14:00 -1°C° 0 mm 1 mps 598 mmHg 78%
    15:00 -1°C° 0 mm 1 mps 598 mmHg 80%
    16:00 -6°C° 0 mm 1 mps 596 mmHg 83%
    17:00 -10°C° 0 mm 1 mps 594 mmHg 86%
    18:00 -14°C° 0 mm 1 mps 592 mmHg 89%
    19:00 -14°C° 0 mm 1 mps 592 mmHg 84%
    20:00 -14°C° 0 mm 1 mps 592 mmHg 79%
    21:00 -15°C° 0 mm 2 mps 593 mmHg 74%
    22:00 -15°C° 0 mm 2 mps 593 mmHg 70%
    23:00 -15°C° 0 mm 2 mps 594 mmHg 66%

    Tomorrow, 22 February, Wednesday

    Time Temperature Precipitation Wind Pressure Humidity
    00:00 -15°C° 0 mm 2 mps 594 mmHg 62%
    01:00 -15°C° 0 mm 2 mps 594 mmHg 63%
    02:00 -14°C° 0 mm 2 mps 594 mmHg 64%
    03:00 -14°C° 0 mm 2 mps 594 mmHg 65%
    04:00 -15°C° 0 mm 2 mps 594 mmHg 66%
    05:00 -15°C° 0 mm 2 mps 594 mmHg 68%
    06:00 -15°C° 0 mm 2 mps 594 mmHg 69%
    07:00 -13°C° 0 mm 2 mps 595 mmHg 70%
    08:00 -10°C° 0 mm 2 mps 596 mmHg 70%
    09:00 -7°C° 0 mm 1 mps 598 mmHg 71%
    10:00 -6°C° 0 mm 2 mps 598 mmHg 71%
    11:00 -5°C° 0 mm 2 mps 598 mmHg 72%
    12:00 -4°C° 0 mm 2 mps 598 mmHg 72%
    13:00 -4°C° 0 mm 2 mps 598 mmHg 73%
    14:00 -4°C° 0 mm 2 mps 598 mmHg 75%
    15:00 -3°C° 0 mm 2 mps 597 mmHg 76%
    16:00 -6°C° 0 mm 2 mps 596 mmHg 78%
    17:00 -9°C° 0 mm 2 mps 595 mmHg 81%
    18:00 -13°C° 0 mm 2 mps 594 mmHg 84%
    19:00 -13°C° 0 mm 2 mps 595 mmHg 82%
    20:00 -13°C° 0 mm 2 mps 595 mmHg 80%
    21:00 -13°C° 0 mm 2 mps 595 mmHg 78%
    22:00 -13°C° 0 mm 2 mps 595 mmHg 78%
    23:00 -12°C° 0 mm 2 mps 595 mmHg 78%

    Day after tomorrow, 23 February, Thursday

    Time Temperature Precipitation Wind Pressure Humidity
    00:00 -12°C° 0 mm 2 mps 596 mmHg 78%
    01:00 -12°C° 0 mm 2 mps 596 mmHg 78%
    02:00 -10°C° 0 mm 2 mps 596 mmHg 79%
    03:00 -10°C° 0 mm 2 mps 596 mmHg 79%
    04:00 -10°C° 0 mm 2 mps 596 mmHg 80%
    05:00 -10°C° 0 mm 2 mps 597 mmHg 80%
    06:00 -10°C° 0 mm 2 mps 597 mmHg 81%
    07:00 -9°C° 0 mm 2 mps 597 mmHg 79%
    08:00 -7°C° 0 mm 1 mps 598 mmHg 78%
    09:00 -6°C° 0 mm 1 mps 599 mmHg 76%
    10:00 -4°C° 0 mm 1 mps 599 mmHg 76%
    11:00 -4°C° 0 mm 2 mps 599 mmHg 77%
    12:00 -3°C° 0 mm 2 mps 600 mmHg 77%
    13:00 -3°C° 0 mm 2 mps 600 mmHg 78%
    14:00 -3°C° 0 mm 2 mps 599 mmHg 78%
    15:00 -3°C° 0 mm 2 mps 599 mmHg 79%
    16:00 -6°C° 0 mm 2 mps 598 mmHg 82%
    17:00 -8°C° 0 mm 2 mps 597 mmHg 85%
    18:00 -12°C° 0 mm 2 mps 596 mmHg 89%
    19:00 -12°C° 0 mm 2 mps 597 mmHg 87%
    20:00 -12°C° 0 mm 2 mps 597 mmHg 85%
    21:00 -13°C° 0 mm 2 mps 598 mmHg 82%
    22:00 -13°C° 0 mm 2 mps 598 mmHg 81%
    23:00 -13°C° 0 mm 2 mps 598 mmHg 79%

    24 February, Friday

    Time Temperature Precipitation Wind Pressure Humidity
    00:00 -13°C° 0 mm 2 mps 598 mmHg 78%
    01:00 -13°C° 0 mm 2 mps 598 mmHg 77%
    02:00 -13°C° 0 mm 2 mps 598 mmHg 76%
    03:00 -12°C° 0 mm 2 mps 598 mmHg 76%
    04:00 -11°C° 0 mm 1 mps 598 mmHg 75%
    05:00 -11°C° 0 mm 1 mps 598 mmHg 74%
    06:00 -11°C° 0 mm 1 mps 598 mmHg 74%
    07:00 -9°C° 0 mm 1 mps 599 mmHg 73%
    08:00 -6°C° 0 mm 1 mps 601 mmHg 71%
    09:00 -3°C° 0 mm 1 mps 602 mmHg 70%
    10:00 -2°C° 0 mm 1 mps 602 mmHg 73%
    11:00 -1°C° 0 mm 1 mps 602 mmHg 75%
    12:00 0°C° 0 mm 1 mps 602 mmHg 78%
    13:00 0°C° 0 mm 1 mps 602 mmHg 80%
    14:00 0°C° 0 mm 1 mps 602 mmHg 83%
    15:00 +1°C° 0 mm 1 mps 602 mmHg 85%
    16:00 -3°C° 0 mm 1 mps 600 mmHg 87%
    17:00 -7°C° 0 mm 1 mps 599 mmHg 89%
    18:00 -10°C° 0 mm 1 mps 597 mmHg 91%
    19:00 -10°C° 0 mm 1 mps 598 mmHg 89%
    20:00 -10°C° 0 mm 1 mps 598 mmHg 87%
    21:00 -10°C° 0 mm 1 mps 599 mmHg 85%
    22:00 -10°C° 0 mm 1 mps 599 mmHg 82%
    23:00 -10°C° 0 mm 1 mps 599 mmHg 78%

    25 February, Saturday

    Time Temperature Precipitation Wind Pressure Humidity
    00:00 -10°C° 0 mm 1 mps 599 mmHg 75%
    01:00 -10°C° 0 mm 1 mps 599 mmHg 72%
    02:00 -10°C° 0 mm 1 mps 598 mmHg 70%
    03:00 -10°C° 0 mm 1 mps 598 mmHg 68%
    04:00 -10°C° 0 mm 1 mps 598 mmHg 67%
    05:00 -11°C° 0 mm 1 mps 599 mmHg 66%
    06:00 -11°C° 0 mm 1 mps 599 mmHg 65%
    07:00 -8°C° 0 mm 1 mps 600 mmHg 65%
    08:00 -6°C° 0 mm 1 mps 601 mmHg 65%
    09:00 -2°C° 0 mm 1 mps 602 mmHg 65%
    10:00 -1°C° 0 mm 1 mps 602 mmHg 69%
    11:00 0°C° 0 mm 1 mps 602 mmHg 73%
    12:00 +1°C° 0 mm 1 mps 602 mmHg 76%
    13:00 +1°C° 0 mm 1 mps 602 mmHg 78%
    14:00 +1°C° 0 mm 1 mps 601 mmHg 80%
    15:00 +1°C° 0 mm 1 mps 601 mmHg 82%
    16:00 -1°C° 0 mm 1 mps 600 mmHg 80%
    17:00 -6°C° 0 mm 2 mps 599 mmHg 79%
    18:00 -9°C° 0 mm 2 mps 597 mmHg 77%
    19:00 -9°C° 0 mm 2 mps 598 mmHg 75%
    20:00 -9°C° 0 mm 2 mps 598 mmHg 72%
    21:00 -9°C° 0 mm 2 mps 598 mmHg 69%
    22:00 -9°C° 0 mm 2 mps 598 mmHg 70%
    23:00 -9°C° 0 mm 2 mps 598 mmHg 70%

    26 February, Sunday

    Time Temperature Precipitation Wind Pressure Humidity
    00:00 -9°C° 0 mm 2 mps 598 mmHg 71%
    01:00 -9°C° 0 mm 2 mps 597 mmHg 71%
    02:00 -9°C° 0 mm 2 mps 597 mmHg 72%
    03:00 -9°C° 0 mm 2 mps 597 mmHg 73%
    04:00 -9°C° 0 mm 2 mps 597 mmHg 74%
    05:00 -9°C° 0 mm 2 mps 597 mmHg 74%
    06:00 -9°C° 0 mm 2 mps 597 mmHg 75%
    07:00 -7°C° 0 mm 2 mps 597 mmHg 74%
    08:00 -5°C° 0 mm 2 mps 598 mmHg 74%
    09:00 -2°C° 0 mm 1 mps 599 mmHg 74%
    10:00 -1°C° 0 mm 1 mps 599 mmHg 76%
    11:00 0°C° 0 mm 1 mps 599 mmHg 78%
    12:00 +1°C° 0 mm 1 mps 599 mmHg 80%
    13:00 +1°C° 0 mm 1 mps 599 mmHg 81%
    14:00 +1°C° 0 mm 1 mps 599 mmHg 82%
    15:00 +1°C° 0 mm 1 mps 599 mmHg 82%
    16:00 -1°C° 0 mm 1 mps 598 mmHg 84%
    17:00 -4°C° 0 mm 1 mps 597 mmHg 85%
    18:00 -7°C° 0 mm 1 mps 596 mmHg 86%
    19:00 -7°C° 0 mm 1 mps 596 mmHg 86%
    20:00 -8°C° 0 mm 1 mps 596 mmHg 86%
    21:00 -8°C° 0 mm 1 mps 597 mmHg 86%
    22:00 -8°C° 0 mm 1 mps 597 mmHg 86%
    23:00 -9°C° 0 mm 1 mps 596 mmHg 85%
    Show more